Waarnemingen

Advertentie
Mijn weer
Charlwood, Groot Brittannië (3769): temperatuur & dauwpunt: 26.03.2020 17:00:00 - 01.04.2020 17:00:00 (BST)Charlwood, Groot Brittannië (3769): temperatuur -20cm & temperatuur -100cm: 26.03.2020 17:00:00 - 01.04.2020 17:00:00 (BST)Charlwood, Groot Brittannië (3769): windsnelheid & windstoten: 26.03.2020 17:00:00 - 01.04.2020 17:00:00 (BST)Charlwood, Groot Brittannië (3769): windrichting: 26.03.2020 17:00:00 - 01.04.2020 17:00:00 (BST)Charlwood, Groot Brittannië (3769): luchtdruk: 26.03.2020 17:00:00 - 01.04.2020 17:00:00 (BST)Charlwood, Groot Brittannië (3769): zicht: 26.03.2020 17:00:00 - 01.04.2020 17:00:00 (BST)Charlwood, Groot Brittannië (3769): Zonneschijnduur: 26.03.2020 17:00:00 - 01.04.2020 17:00:00 (BST)Charlwood, Groot Brittannië (3769): neerslag: 26.03.2020 17:00:00 - 01.04.2020 17:00:00 (BST)
Datum & Tijd tt [°C] td [°C] tt -20cm [°C] tt -100cm [°C] ff [km/u] ff [kn] fx [km/u] fx [kn] dd ppp [hPa] vv [km] sd [min] rr [mm]
01.04.2020 17:00:00 8,6 -1,5 - - 8 4 - - N 1021,0 50 0 0,0
01.04.2020 16:00:00 8,8 -1,2 - - 8 4 - - N 1021,6 40 0 0,0
01.04.2020 15:00:00 9,2 -1,2 - - 9 5 - - N 1021,9 30 0 0,0
01.04.2020 14:00:00 9,9 -1,6 - - 15 8 - - NNO 1022,4 35 36 0,0
01.04.2020 13:00:00 10,3 -1,4 - - 8 4 - - NO 1022,8 28 42 0,0
01.04.2020 12:00:00 9,2 -0,3 - - 15 8 - - NO 1023,6 45 60 0,0
01.04.2020 11:00:00 7,8 -0,1 - - 8 4 - - NO 1024,5 40 60 0,0
01.04.2020 10:00:00 6,4 0,6 7,9 8,0 8 4 - - NO 1025,2 35 54 0,0
01.04.2020 09:00:00 3,9 1,1 - - 5 3 - - NO 1025,5 30 60 0,0
01.04.2020 08:00:00 -0,9 -1,4 - - 2 1 - - N 1025,9 6 48 0,0
01.04.2020 07:00:00 -3,2 -4,0 - - 2 1 - - NW 1026,0 7 0 0,0
01.04.2020 06:00:00 -2,9 -3,7 - - 2 1 - - W 1026,1 6 0 0,0
01.04.2020 05:00:00 -2,4 -3,3 - - 4 2 - - NNW 1026,4 7 0 0,0
01.04.2020 04:00:00 -1,7 -2,8 - - 4 2 - - NNW 1026,8 9 0 0,0
01.04.2020 03:00:00 -0,6 -2,7 - - 0 0 - - N 1027,5 11 0 0,0
01.04.2020 02:00:00 1,2 -1,5 - - 9 5 - - N 1027,9 22 0 0,0
01.04.2020 01:00:00 1,6 -1,5 - - 8 4 - - N 1028,4 26 - 0,0
01.04.2020 00:00:00 0,8 -1,9 - - 5 3 - - N 1029,0 27 0 0,0
31.03.2020 23:00:00 1,6 -1,8 - - 8 4 - - NNO 1029,1 26 0 0,0
31.03.2020 22:00:00 2,8 -2,6 - - 8 4 - - NO 1029,3 45 0 0,0
31.03.2020 21:00:00 4,3 -2,7 - - 11 6 - - NO 1029,5 45 0 0,0
31.03.2020 20:00:00 5,3 -1,8 - - 13 7 - - ONO 1029,5 50 6 0,0
31.03.2020 19:00:00 7,1 -0,6 - - 18 10 - - ONO 1029,4 35 48 0,0
31.03.2020 18:00:00 8,1 0,4 - - 16 9 - - ONO 1029,7 20 24 0,0
31.03.2020 17:00:00 8,5 0,4 - - 18 10 - - NO 1029,7 27 12 -
31.03.2020 16:00:00 10,4 -1,1 - - 21 11 - - ONO 1029,7 30 48 0,0
31.03.2020 15:00:00 9,4 -2,1 - - 24 13 - - NO 1030,3 50 48 0,0
31.03.2020 14:00:00 9,9 -1,6 - - 21 11 - - ONO 1030,9 45 30 0,0
31.03.2020 13:00:00 9,5 -0,4 - - 24 13 - - ONO 1031,2 35 24 0,0
31.03.2020 12:00:00 9,6 2,0 - - 22 12 - - ONO 1031,4 30 24 0,0
31.03.2020 11:00:00 7,5 1,7 - - 22 12 - - ONO 1031,7 24 18 0,0
31.03.2020 10:00:00 6,7 2,7 7,9 8,0 22 12 - - NO 1032,1 18 18 0,0
31.03.2020 09:00:00 4,3 1,7 - - 15 8 - - NNO 1032,0 20 0 0,0
31.03.2020 08:00:00 3,5 1,1 - - 11 6 - - NNO 1031,8 18 0 0,0
31.03.2020 07:00:00 2,8 0,3 - - 13 7 - - NNO 1031,3 19 0 0,0
31.03.2020 06:00:00 3,2 0,6 - - 15 8 - - NNO 1030,9 17 0 0,0
31.03.2020 05:00:00 3,3 0,6 - - 13 7 - - NNO 1031,0 18 0 0,0
31.03.2020 04:00:00 3,4 0,8 - - 11 6 - - NNO 1031,1 17 0 0,0
31.03.2020 03:00:00 4,3 1,5 - - 13 7 - - NNO 1031,1 20 0 0,0
31.03.2020 02:00:00 4,1 1,4 - - 11 6 - - NNO 1031,2 20 0 0,0
31.03.2020 01:00:00 4,7 1,8 - - 13 7 - - NNO 1031,3 18 - 0,0
31.03.2020 00:00:00 5,3 1,4 - - 15 8 - - NNO 1031,1 30 0 0,0
30.03.2020 23:00:00 6,1 2,8 - - 15 8 - - NNO 1031,2 22 0 0,0
30.03.2020 22:00:00 6,6 1,9 - - 15 8 - - NNO 1031,2 23 0 0,0
30.03.2020 21:00:00 6,8 2,3 - - 16 9 - - NNO 1031,1 20 0 0,0
30.03.2020 20:00:00 6,8 2,3 - - 9 5 - - NNO 1030,7 21 0 0,0
30.03.2020 19:00:00 7,1 2,4 - - 11 6 - - NNO 1030,7 40 0 0,0
30.03.2020 18:00:00 7,7 2,9 - - 9 5 - - NO 1030,6 29 12 0,0
30.03.2020 17:00:00 7,3 3,5 - - 9 5 - - NO 1031,1 30 0 0,0
30.03.2020 16:00:00 6,8 2,7 - - 13 7 - - NO 1031,7 18 6 0,0
30.03.2020 15:00:00 8,1 2,0 - - 15 8 - - NO 1031,9 35 0 0,0
30.03.2020 14:00:00 7,9 2,7 - - 13 7 - - NNO 1032,6 30 6 0,0
30.03.2020 13:00:00 7,4 2,6 - - 15 8 - - NNO 1033,3 30 6 0,0
30.03.2020 12:00:00 5,7 0,8 - - 5 3 - - NO 1033,9 30 0 0,2
30.03.2020 11:00:00 5,3 -1,2 - - 11 6 - - N 1034,7 30 0 0,0
30.03.2020 10:00:00 4,7 -1,8 7,9 8,0 9 5 - - N 1035,1 30 0 0,0
30.03.2020 09:00:00 3,9 -0,5 - - 8 4 - - N 1035,4 24 6 0,0
30.03.2020 08:00:00 2,5 -0,7 - - 5 3 - - N 1035,9 27 0 0,0
30.03.2020 07:00:00 1,4 -1,2 - - 5 3 - - N 1036,1 27 0 0,0
30.03.2020 06:00:00 1,9 -1,7 - - 9 5 - - N 1036,1 30 0 0,0
30.03.2020 05:00:00 2,8 -1,3 - - 11 6 - - N 1036,3 35 0 0,0
30.03.2020 04:00:00 2,7 -1,7 - - 11 6 - - N 1036,8 30 0 0,0
30.03.2020 03:00:00 2,5 -3,4 - - 13 7 - - N 1037,5 35 0 0,0
30.03.2020 02:00:00 1,9 -4,4 - - 11 6 - - NNO 1037,9 30 0 0,0
30.03.2020 01:00:00 1,5 -4,8 - - 13 7 - - NNO 1038,4 30 - 0,0
30.03.2020 00:00:00 1,9 -4,8 - - 13 7 - - NNO 1038,7 30 0 0,0
29.03.2020 23:00:00 2,1 -5,0 - - 15 8 - - NNO 1039,1 24 0 0,0
29.03.2020 22:00:00 3,1 -5,1 - - 26 14 48 26 NO 1038,8 35 0 0,0
29.03.2020 21:00:00 3,5 -5,5 - - 28 15 50 27 NO 1038,6 35 0 0,0
29.03.2020 20:00:00 4,1 -5,8 - - 31 17 52 28 NNO 1038,0 35 0 0,0
29.03.2020 19:00:00 5,2 -6,1 - - 29 16 54 29 NNO 1037,4 45 36 0,0
29.03.2020 18:00:00 5,6 -4,4 - - 31 17 59 32 NO 1036,9 35 18 0,0
29.03.2020 17:00:00 5,6 -2,0 - - 34 18 52 28 NNO 1037,0 23 36 0,0
29.03.2020 16:00:00 4,3 0,5 - - 26 14 61 33 NO 1037,2 30 24 0,6
29.03.2020 15:00:00 6,0 1,3 - - 28 15 57 31 NNO 1037,2 40 42 0,2
29.03.2020 14:00:00 5,7 0,3 - - 28 15 52 28 NNO 1036,9 30 30 0,2
29.03.2020 13:00:00 5,2 -1,5 - - 34 18 63 34 NNO 1037,0 5 24 0,0
29.03.2020 12:00:00 7,5 -3,1 - - 34 18 63 34 NNO 1036,4 18 42 0,0
29.03.2020 11:00:00 6,1 -3,7 - - 37 20 63 34 NNO 1036,2 29 48 0,0
29.03.2020 10:00:00 5,8 -4,3 8,2 8,2 35 19 61 33 NNO 1036,0 22 54 0,0
29.03.2020 09:00:00 4,8 -3,2 - - 29 16 55 30 NNO 1035,6 21 30 0,0
29.03.2020 08:00:00 3,6 -3,0 - - 26 14 48 26 NNO 1035,4 20 0 0,0
29.03.2020 07:00:00 3,7 -3,2 - - 29 16 46 25 NNO 1034,8 25 0 0,0
29.03.2020 06:00:00 3,8 -3,0 - - 28 15 48 26 NNO 1034,5 21 0 0,0
29.03.2020 05:00:00 3,7 -2,5 - - 21 11 - - NNO 1034,4 17 0 0,0
29.03.2020 04:00:00 3,4 -2,0 - - 22 12 46 25 NNO 1034,2 20 0 0,0
29.03.2020 03:00:00 3,5 -1,0 - - 22 12 - - NNO 1034,3 22 0 0,0
29.03.2020 02:00:00 4,1 -0,5 - - 24 13 - - NNO 1034,0 23 0 0,0
29.03.2020 01:00:00 4,4 -0,1 - - 22 12 - - NNO 1033,6 26 - 0,0
29.03.2020 00:00:00 4,8 -0,1 - - 26 14 55 30 NNO 1033,0 27 0 0,0
28.03.2020 23:00:00 5,1 -0,5 - - 24 13 46 25 NNO 1032,6 23 0 0,0
28.03.2020 22:00:00 5,2 -1,4 - - 26 14 50 27 NNO 1032,1 21 0 0,0
28.03.2020 21:00:00 6,5 -0,2 - - 26 14 61 33 NNO 1031,6 28 0 0,0
28.03.2020 20:00:00 7,5 -1,3 - - 34 18 52 28 NNO 1030,3 40 0 0,0
28.03.2020 19:00:00 8,5 -1,4 - - 29 16 50 27 NNO 1029,5 35 0 0,0
28.03.2020 18:00:00 8,6 0,7 - - 35 19 55 30 NO 1028,8 45 0 0,0
28.03.2020 17:00:00 9,0 1,6 - - 29 16 59 32 NO 1028,5 20 0 0,0
28.03.2020 16:00:00 8,6 2,1 - - 35 19 52 28 NO 1028,4 16 0 0,0
28.03.2020 15:00:00 10,6 3,3 - - 35 19 54 29 NO 1028,0 20 48 0,0
28.03.2020 14:00:00 11,7 1,8 - - 31 17 54 29 NO 1027,8 30 60 0,0
28.03.2020 13:00:00 11,1 1,2 - - 31 17 52 28 NO 1027,5 16 60 0,0
28.03.2020 12:00:00 10,5 1,5 - - 31 17 54 29 NO 1027,3 12 60 0,0
28.03.2020 11:00:00 9,5 1,1 - - 26 14 - - NO 1027,0 12 60 0,0
28.03.2020 10:00:00 7,9 1,8 8,2 8,2 22 12 - - NNO 1026,6 14 54 0,0
28.03.2020 09:00:00 6,1 1,8 - - 18 10 - - NNO 1026,1 12 36 0,0
28.03.2020 08:00:00 4,6 1,2 - - 16 9 - - NNO 1025,6 11 0 0,0
28.03.2020 07:00:00 4,0 0,4 - - 15 8 - - NNO 1025,2 13 0 0,0
28.03.2020 06:00:00 4,1 0,5 - - 18 10 - - NNO 1024,7 12 0 0,0
28.03.2020 05:00:00 4,2 0,7 - - 18 10 - - NNO 1024,5 12 0 0,0
28.03.2020 04:00:00 4,4 0,6 - - 15 8 - - NNO 1024,3 12 0 0,0
28.03.2020 03:00:00 4,4 0,7 - - 9 5 - - NNO 1024,4 12 0 0,0
28.03.2020 02:00:00 4,8 0,8 - - 15 8 - - NNO 1024,4 11 0 0,0
28.03.2020 01:00:00 5,1 0,0 - - 15 8 - - NNO 1024,4 15 - 0,0
28.03.2020 00:00:00 5,6 -0,7 - - 16 9 - - NNO 1024,3 16 0 0,0
27.03.2020 23:00:00 6,3 -1,5 - - 18 10 - - NNO 1024,0 18 0 0,0
27.03.2020 22:00:00 7,3 -1,7 - - 18 10 - - NO 1023,7 23 0 0,0
27.03.2020 21:00:00 8,5 -1,9 - - 21 11 - - NNO 1023,2 26 0 0,0
27.03.2020 20:00:00 9,5 -1,4 - - 18 10 - - NO 1022,6 30 0 0,0
27.03.2020 19:00:00 10,7 -1,0 - - 26 14 - - NO 1021,8 30 36 0,0
27.03.2020 18:00:00 12,0 -0,6 - - 26 14 - - NO 1021,3 29 60 0,0
27.03.2020 17:00:00 12,7 -0,2 - - 24 13 - - NNO 1021,2 27 60 0,0
27.03.2020 16:00:00 13,0 -0,1 - - 28 15 - - NO 1021,4 30 60 0,0
27.03.2020 15:00:00 12,8 -0,9 - - 28 15 - - NO 1021,9 23 60 0,0
27.03.2020 14:00:00 13,0 0,2 - - 26 14 - - ONO 1022,4 30 60 0,0
27.03.2020 13:00:00 12,0 0,3 - - 26 14 - - ONO 1022,9 16 60 0,0
27.03.2020 12:00:00 11,0 0,5 - - 22 12 - - NO 1023,1 11 60 0,0
27.03.2020 11:00:00 9,2 0,9 - - 16 9 - - NNO 1023,3 14 60 0,0
27.03.2020 10:00:00 6,7 2,2 8,0 8,2 15 8 - - NO 1023,4 10 54 0,0
27.03.2020 09:00:00 4,4 2,5 - - 13 7 - - NNO 1023,3 7 60 0,0
27.03.2020 08:00:00 1,1 0,6 - - 5 3 - - NNO 1023,3 5 6 0,0
27.03.2020 07:00:00 -0,7 -1,5 - - 4 2 - - N 1023,2 1,3 0 0,0
27.03.2020 06:00:00 -0,3 -1,3 - - 4 2 - - N 1023,1 3,4 0 0,0
27.03.2020 05:00:00 0,5 -0,7 - - 5 3 - - N 1023,1 5 0 0,0
27.03.2020 04:00:00 1,1 -0,7 - - 8 4 - - N 1022,8 6 0 0,0
27.03.2020 03:00:00 1,7 -0,7 - - 5 3 - - N 1023,1 9 0 0,0
27.03.2020 02:00:00 2,2 -0,8 - - 8 4 - - N 1023,2 11 0 0,0
27.03.2020 01:00:00 2,7 -1,1 - - 8 4 - - N 1023,2 11 - 0,0
27.03.2020 00:00:00 1,6 -1,6 - - 5 3 - - N 1023,3 11 0 0,0
26.03.2020 23:00:00 2,9 -2,1 - - 5 3 - - NNO 1023,3 15 0 0,0
26.03.2020 22:00:00 4,1 -3,0 - - 9 5 - - NO 1023,2 20 0 0,0
26.03.2020 21:00:00 4,0 -5,2 - - 9 5 - - ONO 1023,1 27 0 0,0
26.03.2020 20:00:00 5,8 -5,9 - - 11 6 - - NO 1022,4 27 0 0,0
26.03.2020 19:00:00 8,0 -6,5 - - 18 10 - - ONO 1021,9 40 24 0,0
26.03.2020 18:00:00 10,3 -6,8 - - 22 12 - - NO 1021,6 30 60 0,0
26.03.2020 17:00:00 - - - - - - - - - - - - -

tt = temperatuur
td = dauwpunt
tt -20cm = temperatuur -20cm
tt -100cm = temperatuur -100cm
ff = windsnelheid
fx = windstoten
dd = windrichting
ppp = luchtdruk
vv = zicht
sd = Zonneschijnduur
rr = neerslag

Weerstations in de omgeving